Guadalajara Don Miguel, Mexico

8:04 AM CDT on June 28, 2017 (GMT -0500)
Guadalajara Don Miguel

Weather History for MMGL - December, 2012

Change the Weather History Date:

Monday, December 24, 2012

  Actual Average Record
Temperature  
Mean Temperature 60 °F -  
Max Temperature 80 °F 73 °F 80 °F (2011)
Min Temperature 41 °F 38 °F 35 °F (2002)
Degree Days  
Heating Degree Days 4    
Growing Degree Days 10 (Base 50)    
Moisture  
Dew Point 34 °F    
Average Humidity 46    
Maximum Humidity 93    
Minimum Humidity 13    
Precipitation  
Precipitation 0.00 in - - ()
Sea Level Pressure  
Sea Level Pressure 30.05 in    
Wind  
Wind Speed 2 mph ()    
Max Wind Speed 14 mph    
Max Gust Speed -    
Visibility 10.3 miles    
Events      
Averages and records for this station are not official NWS values.
T = Trace of Precipitation, MM = Missing Value Source: Averaged Metar Reports

Daily Weather History Graph

Daily Weather History Graph

Search for Another Location

Airport or City:

Trip Planner

Search our weather history database for the weather conditions in past years. The results will help you decide how hot, cold, wet, or windy it might be!

Date:

Astronomy

Dec. 24, 2012 Rise Set
Actual Time 7:26 AM CST 6:19 PM CST
Civil Twilight 7:02 AM CST 6:44 PM CST
Nautical Twilight 6:34 AM CST 7:11 PM CST
Astronomical Twilight 6:07 AM CST 7:38 PM CST
Moon 3:40 PM CST (12/24) 4:16 AM CST (12/24)
Length of Visible Light 11h 41m
Length of Day
10h 53m
Waxing Gibbous, 88% of the Moon is Illuminated
Dec 24
Waxing Gibbous
Dec 28
Full
Jan 4
Last Quarter
Jan 11
New
Jan 18
First Quarter

Hourly Weather History & Observations

Time (CST) Temp. Windchill Dew Point Humidity Pressure Visibility Wind Dir Wind Speed Gust Speed Precip Events Conditions
12:47 AM 50.0 °F - 41.0 °F 71% 30.17 in 10.0 mi Calm Calm - N/A   Clear
1:50 AM 46.4 °F - 39.2 °F 76% 30.15 in 10.0 mi Calm Calm - N/A   Clear
2:48 AM 44.6 °F - 39.2 °F 81% 29.92 in 10.0 mi East 2.3 mph - N/A   Clear
3:47 AM 44.6 °F - 39.2 °F 81% 30.13 in 10.0 mi Calm Calm - N/A   Clear
4:49 AM 42.8 °F - 37.4 °F 81% 30.12 in 8.0 mi Calm Calm - N/A   Scattered Clouds
5:55 AM 42.8 °F - 37.4 °F 81% 29.93 in 8.0 mi Calm Calm - N/A   Scattered Clouds
6:54 AM 41.0 °F - 39.2 °F 93% 30.14 in 8.0 mi Calm Calm - N/A   Mostly Cloudy
7:52 AM 41.0 °F 38.0 °F 37.4 °F 87% 30.16 in 8.0 mi SSW 4.6 mph - N/A   Mostly Cloudy
8:49 AM 51.8 °F - 41.0 °F 67% 30.01 in 10.0 mi Calm Calm - N/A   Scattered Clouds
9:52 AM 62.6 °F - 41.0 °F 45% 30.19 in 10.0 mi Calm Calm - N/A   Scattered Clouds
10:47 AM 68.0 °F - 39.2 °F 35% 30.17 in 10.0 mi SE 3.5 mph - N/A   Scattered Clouds
11:49 AM 73.4 °F - 39.2 °F 29% 29.90 in 10.0 mi Calm Calm - N/A   Scattered Clouds
12:47 PM 77.0 °F - 32.0 °F 19% 30.11 in 10.0 mi WNW 3.5 mph - N/A   Scattered Clouds
1:45 PM 80.6 °F - 26.6 °F 14% 30.07 in 10.0 mi Calm Calm - N/A   Scattered Clouds
2:51 PM 80.6 °F - 24.8 °F 13% 29.80 in 10.0 mi West 9.2 mph - N/A   Scattered Clouds
3:43 PM 80.6 °F - 26.6 °F 14% 30.01 in 12.0 mi WNW 13.8 mph - N/A   Scattered Clouds
4:52 PM 78.8 °F - 26.6 °F 15% 30.01 in 12.0 mi WNW 3.5 mph - N/A   Scattered Clouds
5:41 PM 77.0 °F - 26.6 °F 16% 29.81 in 12.0 mi West 9.2 mph - N/A   Scattered Clouds
6:51 PM 69.8 °F - 30.2 °F 23% 30.03 in 12.0 mi SW 3.5 mph - N/A   Clear
7:46 PM 68.0 °F - 28.4 °F 23% 30.06 in 12.0 mi West 5.8 mph - N/A   Clear
8:48 PM 62.6 °F - 28.4 °F 27% 29.91 in 12.0 mi West 4.6 mph - N/A   Clear
9:47 PM 62.6 °F - 30.2 °F 30% 30.12 in 12.0 mi WSW 4.6 mph - N/A   Clear
10:54 PM 60.8 °F - 30.2 °F 31% 30.12 in 12.0 mi West 4.6 mph - N/A   Clear